DateTime,Voltage,Setpoint_Voltage,VVC_ClosedLoop_Enabled,Real_Power
 03/09/2018 00:00:00,33.52,33.3,1,-8.37
 03/09/2018 00:15:00,33.52,33.3,1,-8.37
 03/09/2018 00:30:00,33.52,33.3,1,-8.37
 03/09/2018 00:45:00,33.52,33.3,1,-8.37
 03/09/2018 01:00:00,33.52,33.3,1,-8.37
 03/09/2018 01:15:00,33.52,33.3,1,-8.37
 03/09/2018 01:30:00,33.52,33.3,1,-8.37
 03/09/2018 01:45:00,33.52,33.3,1,-8.37
 03/09/2018 02:00:00,33.52,33.3,1,-8.37
 03/09/2018 02:15:00,33.52,33.3,1,-8.37
 03/09/2018 02:30:00,33.52,33.3,1,-8.37
 03/09/2018 02:45:00,33.52,33.3,1,-8.37
 03/09/2018 03:00:00,33.52,33.3,1,-8.37
 03/09/2018 03:15:00,33.52,33.3,1,-8.37
 03/09/2018 03:30:00,33.52,33.3,1,-8.37
 03/09/2018 03:45:00,33.52,33.3,1,-8.37
 03/09/2018 04:00:00,33.52,33.3,1,-8.37
 03/09/2018 04:15:00,33.52,33.3,1,-8.37
 03/09/2018 04:30:00,33.52,33.3,1,-8.37
 03/09/2018 04:45:00,33.52,33.3,1,-8.37
 03/09/2018 05:00:00,33.52,33.3,1,-8.37
 03/09/2018 05:15:00,33.52,33.3,1,-8.37
 03/09/2018 05:30:00,33.52,33.3,1,-8.37
 03/09/2018 05:45:00,33.52,33.3,1,-8.37
 03/09/2018 06:00:00,33.52,33.3,1,-8.37
 03/09/2018 06:15:00,33.52,33.3,1,-8.37
 03/09/2018 06:30:00,33.52,33.3,1,-8.37
 03/09/2018 06:45:00,33.52,33.3,1,-8.37
 03/09/2018 07:00:00,33.52,33.3,1,-8.37
 03/09/2018 07:15:00,33.52,33.3,1,-8.37
 03/09/2018 07:30:00,33.52,33.3,1,-8.37
 03/09/2018 07:45:00,33.52,33.3,1,-8.37
 03/09/2018 08:00:00,33.52,33.3,1,-8.37
 03/09/2018 08:15:00,33.52,33.3,1,-8.37
 03/09/2018 08:30:00,33.52,33.3,1,-8.37
 03/09/2018 08:45:00,33.52,33.3,1,-8.37
 03/09/2018 09:00:00,33.06,33.3,1,-10.29
 03/09/2018 09:15:00,32.99,33.3,1,-8.77
 03/09/2018 09:30:00,32.99,33.3,1,-8.01
 03/09/2018 09:45:00,32.96,33.3,1,-7.07
 03/09/2018 10:00:00,32.94,33.3,1,-5.2
 03/09/2018 10:15:00,32.95,33.3,1,-4.22
 03/09/2018 10:30:00,32.92,33.3,1,-2.94
 03/09/2018 10:45:00,32.86,33.3,1,-2.36
 03/09/2018 11:00:00,32.83,33.3,1,-2.01
 03/09/2018 11:15:00,32.81,33.3,1,-1.93
 03/09/2018 11:30:00,32.78,33.3,1,-1.83
 03/09/2018 11:45:00,32.89,33.3,1,-2.65
 03/09/2018 12:00:00,33.08,33.3,1,-3.67
 03/09/2018 12:15:00,33.09,33.3,1,-3.72
 03/09/2018 12:30:00,33.07,33.3,1,-3.61
 03/09/2018 12:45:00,33.07,33.3,1,-3.36
 03/09/2018 13:00:00,33.1,33.3,1,-4.57
 03/09/2018 13:15:00,33.14,33.3,1,-4.4
 03/09/2018 13:30:00,33.17,33.3,1,-4.61
 03/09/2018 13:45:00,33.18,33.3,1,-6.75
 03/09/2018 14:00:00,33.17,33.3,1,-7.41
 03/09/2018 14:15:00,33.13,33.3,1,-7.99
 03/09/2018 14:30:00,33.12,33.3,1,-8.08
 03/09/2018 14:45:00,33.18,33.3,1,-8.81
 03/09/2018 15:00:00,33.2,33.3,1,-8.35
 03/09/2018 15:15:00,33.23,33.3,1,-9.5
 03/09/2018 15:30:00,33.25,33.3,1,-10.14
 03/09/2018 15:45:00,33.3,33.3,1,-10.38
 03/09/2018 16:00:00,33.3,33.3,1,-11.08
 03/09/2018 16:15:00,33.33,33.3,1,-11.57
 03/09/2018 16:30:00,33.32,33.3,1,-11.8
 03/09/2018 16:45:00,33.3,33.3,1,-12.68
 03/09/2018 17:00:00,33.28,33.3,1,-13.27
 03/09/2018 17:15:00,33.37,33.3,1,-13.41
 03/09/2018 17:30:00,33.33,33.3,1,-13.76
 03/09/2018 17:45:00,33.33,33.3,1,-13.87
 03/09/2018 18:00:00,33.32,33.3,1,-13.94
 03/09/2018 18:15:00,33.34,33.3,1,-14.17
 03/09/2018 18:30:00,33.32,33.3,1,-14.12
 03/09/2018 18:45:00,33.28,33.3,1,-13.78
 03/09/2018 19:00:00,33.25,33.3,1,-14.0
 03/09/2018 19:15:00,33.26,33.3,1,-13.82
 03/09/2018 19:30:00,33.28,33.3,1,-14.11
 03/09/2018 19:45:00,33.27,33.3,1,-14.4
 03/09/2018 20:00:00,33.25,33.3,1,-14.32
 03/09/2018 20:15:00,33.22,33.3,1,-14.4
 03/09/2018 20:30:00,33.26,33.3,1,-14.32
 03/09/2018 20:45:00,33.25,33.3,1,-13.95
 03/09/2018 21:00:00,33.3,33.3,1,-13.6
 03/09/2018 21:15:00,33.37,33.3,1,-13.41
 03/09/2018 21:30:00,33.47,33.3,1,-12.69
 03/09/2018 21:45:00,33.57,33.3,1,-12.27
 03/09/2018 22:00:00,33.6,33.3,1,-11.74
 03/09/2018 22:15:00,33.53,33.3,1,-11.22
 03/09/2018 22:30:00,33.54,33.3,1,-10.62
 03/09/2018 22:45:00,33.62,33.3,1,-10.05
 03/09/2018 23:00:00,33.65,33.3,1,-9.56
 03/09/2018 23:15:00,33.66,33.3,1,-9.08
 03/09/2018 23:30:00,33.61,33.3,1,-8.66
 03/09/2018 23:45:00,33.72,33.3,1,-8.38
 04/09/2018 00:00:00,33.71,33.3,1,-7.95
 04/09/2018 00:15:00,33.36,33.3,1,-8.16
 04/09/2018 00:30:00,33.4,33.3,1,-8.01
 04/09/2018 00:45:00,33.44,33.3,1,-7.84
 04/09/2018 01:00:00,33.45,33.3,1,-7.77
 04/09/2018 01:15:00,33.45,33.3,1,-8.03
 04/09/2018 01:30:00,33.49,33.3,1,-8.01
 04/09/2018 01:45:00,33.53,33.3,1,-7.84
 04/09/2018 02:00:00,33.52,33.3,1,-7.78
 04/09/2018 02:15:00,33.55,33.3,1,-7.64
 04/09/2018 02:30:00,33.56,33.3,1,-7.56
 04/09/2018 02:45:00,33.6,33.3,1,-7.43
 04/09/2018 03:00:00,33.57,33.3,1,-7.43
 04/09/2018 03:15:00,33.58,33.3,1,-7.43
 04/09/2018 03:30:00,33.53,33.3,1,-7.43
 04/09/2018 03:45:00,33.56,33.3,1,-7.43
 04/09/2018 04:00:00,33.55,33.3,1,-7.43
 04/09/2018 04:15:00,33.55,33.3,1,-7.43
 04/09/2018 04:30:00,33.59,33.3,1,-7.43
 04/09/2018 04:45:00,33.53,33.3,1,-7.43
 04/09/2018 05:00:00,33.51,33.3,1,-7.43
 04/09/2018 05:15:00,33.52,33.3,1,-7.67
 04/09/2018 05:30:00,33.46,33.3,1,-7.9
 04/09/2018 05:45:00,33.46,33.3,1,-8.19
 04/09/2018 06:00:00,33.43,33.3,1,-8.57
 04/09/2018 06:15:00,33.39,33.3,1,-9.57
 04/09/2018 06:30:00,33.29,33.3,1,-9.87
 04/09/2018 06:45:00,33.24,33.3,1,-10.52
 04/09/2018 07:00:00,33.27,33.3,1,-11.33
 04/09/2018 07:15:00,33.13,33.3,1,-12.11
 04/09/2018 07:30:00,33.0,33.3,1,-12.52
 04/09/2018 07:45:00,32.88,33.3,1,-12.78
 04/09/2018 08:00:00,32.82,33.3,1,-13.24
 04/09/2018 08:15:00,33.41,33.3,1,-13.49
 04/09/2018 08:30:00,33.47,33.3,1,-19.74
 04/09/2018 08:45:00,33.39,33.3,1,-21.9
 04/09/2018 09:00:00,33.39,33.3,1,-21.85
 04/09/2018 09:15:00,33.35,33.3,1,-22.01
 04/09/2018 09:30:00,33.34,33.3,1,-21.91
 04/09/2018 09:45:00,33.35,33.3,1,-21.66
 04/09/2018 10:00:00,33.37,33.3,1,-21.63
 04/09/2018 10:15:00,33.41,33.3,1,-21.52
 04/09/2018 10:30:00,33.4,33.3,1,-21.17
 04/09/2018 10:45:00,33.38,33.3,1,-21.1
 04/09/2018 11:00:00,33.38,33.3,1,-21.36
 04/09/2018 11:15:00,33.35,33.3,1,-21.86
 04/09/2018 11:30:00,33.35,33.3,1,-21.61
 04/09/2018 11:45:00,33.33,33.3,1,-21.44
 04/09/2018 12:00:00,33.34,33.3,1,-20.98
 04/09/2018 12:15:00,33.34,33.3,1,-21.54
 04/09/2018 12:30:00,33.39,33.3,1,-21.08
 04/09/2018 12:45:00,33.46,33.3,1,-19.94
 04/09/2018 13:00:00,33.46,33.3,1,-19.74
 04/09/2018 13:15:00,33.47,33.3,1,-19.83
 04/09/2018 13:30:00,33.54,33.3,1,-19.84
 04/09/2018 13:45:00,33.58,33.3,1,-18.47
 04/09/2018 14:00:00,33.64,33.3,1,-18.28
 04/09/2018 14:15:00,33.64,33.3,1,-18.62
 04/09/2018 14:30:00,33.2,33.3,1,-18.83
 04/09/2018 14:45:00,33.04,33.3,1,-18.23
 04/09/2018 15:00:00,32.98,33.3,1,-18.11
 04/09/2018 15:15:00,33.01,33.3,1,-18.32
 04/09/2018 15:30:00,32.99,33.3,1,-18.29
 04/09/2018 15:45:00,32.93,33.3,1,-17.82
 04/09/2018 16:00:00,32.91,33.3,1,-11.0
 04/09/2018 16:15:00,32.97,33.3,1,-11.47
 04/09/2018 16:30:00,32.95,33.3,1,-11.33
 04/09/2018 16:45:00,32.96,33.3,1,-11.88
 04/09/2018 17:00:00,32.9,33.3,1,-13.14
 04/09/2018 17:15:00,32.87,33.3,1,-13.67
 04/09/2018 17:30:00,32.86,33.3,1,-14.11
 04/09/2018 17:45:00,32.89,33.3,1,-14.36
 04/09/2018 18:00:00,32.89,33.3,1,-14.73
 04/09/2018 18:15:00,32.89,33.3,1,-15.2
 04/09/2018 18:30:00,32.89,33.3,1,-15.47
 04/09/2018 18:45:00,32.87,33.3,1,-15.26
 04/09/2018 19:00:00,32.87,33.3,1,-15.13
 04/09/2018 19:15:00,32.89,33.3,1,-15.0
 04/09/2018 19:30:00,32.9,33.3,1,-14.9
 04/09/2018 19:45:00,32.91,33.3,1,-15.05
 04/09/2018 20:00:00,32.91,33.3,1,-15.01
 04/09/2018 20:15:00,32.85,33.3,1,-15.23
 04/09/2018 20:30:00,32.87,33.3,1,-15.0
 04/09/2018 20:45:00,32.93,33.3,1,-14.64
 04/09/2018 21:00:00,33.04,33.3,1,-14.17
 04/09/2018 21:15:00,33.11,33.3,1,-13.9
 04/09/2018 21:30:00,33.19,33.3,1,-13.49
 04/09/2018 21:45:00,33.29,33.3,1,-12.94
 04/09/2018 22:00:00,33.37,33.3,1,-12.3
 04/09/2018 22:15:00,33.44,33.3,1,-11.59
 04/09/2018 22:30:00,33.5,33.3,1,-10.93
 04/09/2018 22:45:00,33.55,33.3,1,-10.46
 04/09/2018 23:00:00,33.63,33.3,1,-9.91
 04/09/2018 23:15:00,33.7,33.3,1,-9.44
 04/09/2018 23:30:00,33.38,33.3,1,-9.26
 04/09/2018 23:45:00,33.46,33.3,1,-9.08
 05/09/2018 00:00:00,33.48,33.3,1,-8.65
 05/09/2018 00:15:00,33.48,33.3,1,-8.57
 05/09/2018 00:30:00,33.4,33.3,1,-8.38
 05/09/2018 00:45:00,33.4,33.3,1,-8.2
 05/09/2018 01:00:00,33.38,33.3,1,-7.95
 05/09/2018 01:15:00,33.38,33.3,1,-8.35
 05/09/2018 01:30:00,33.45,33.3,1,-8.31
 05/09/2018 01:45:00,33.41,33.3,1,-8.26
 05/09/2018 02:00:00,33.46,33.3,1,-7.99
 05/09/2018 02:15:00,33.44,33.3,1,-8.04
 05/09/2018 02:30:00,33.49,33.3,1,-7.94
 05/09/2018 02:45:00,33.52,33.3,1,-7.74
 05/09/2018 03:00:00,33.38,33.3,1,-7.57
 05/09/2018 03:15:00,33.33,33.3,1,-7.57
 05/09/2018 03:30:00,33.35,33.3,1,-7.67
 05/09/2018 03:45:00,33.36,33.3,1,-7.7
 05/09/2018 04:00:00,33.37,33.3,1,-7.7
 05/09/2018 04:15:00,33.39,33.3,1,-7.7
 05/09/2018 04:30:00,33.4,33.3,1,-7.7
 05/09/2018 04:45:00,33.34,33.3,1,-7.7
 05/09/2018 05:00:00,33.39,33.3,1,-7.78
 05/09/2018 05:15:00,33.48,33.3,1,-8.05
 05/09/2018 05:30:00,33.33,33.3,1,-8.14
 05/09/2018 05:45:00,33.21,33.3,1,-8.41
 05/09/2018 06:00:00,33.21,33.3,1,-8.94
 05/09/2018 06:15:00,33.11,33.3,1,-9.99
 05/09/2018 06:30:00,33.12,33.3,1,-10.42
 05/09/2018 06:45:00,33.03,33.3,1,-11.01
 05/09/2018 07:00:00,33.03,33.3,1,-11.74
 05/09/2018 07:15:00,32.96,33.3,1,-12.21
 05/09/2018 07:30:00,33.1,33.3,1,-12.1
 05/09/2018 07:45:00,33.01,33.3,1,-11.89
 05/09/2018 08:00:00,32.96,33.3,1,-11.54
 05/09/2018 08:15:00,32.97,33.3,1,-11.21
 05/09/2018 08:30:00,32.96,33.3,1,-10.89
 05/09/2018 08:45:00,32.9,33.3,1,-10.25
 05/09/2018 09:00:00,32.89,33.3,1,-8.86
 05/09/2018 09:15:00,32.85,33.3,1,-7.63
 05/09/2018 09:30:00,32.9,33.3,1,-7.01
 05/09/2018 09:45:00,32.9,33.3,1,-6.39
 05/09/2018 10:00:00,32.89,33.3,1,-6.06
 05/09/2018 10:15:00,32.9,33.3,1,-5.66
 05/09/2018 10:30:00,32.85,33.3,1,-3.18
 05/09/2018 10:45:00,32.82,33.3,1,-1.87
 05/09/2018 11:00:00,32.78,33.3,1,-1.12
 05/09/2018 11:15:00,32.75,33.3,1,-1.19
 05/09/2018 11:30:00,33.08,33.3,1,-0.18
 05/09/2018 11:45:00,33.09,33.3,1,-0.57
 05/09/2018 12:00:00,33.09,33.3,1,-1.36
 05/09/2018 12:15:00,33.09,33.3,1,-0.77
 05/09/2018 12:30:00,33.12,33.3,1,-0.63
 05/09/2018 12:45:00,33.17,33.3,1,-1.31
 05/09/2018 13:00:00,33.2,33.3,1,-2.04
 05/09/2018 13:15:00,33.19,33.3,1,-1.07
 05/09/2018 13:30:00,33.2,33.3,1,-0.97
 05/09/2018 13:45:00,33.22,33.3,1,-1.09
 05/09/2018 14:00:00,33.24,33.3,1,-1.03
 05/09/2018 14:15:00,33.26,33.3,1,-1.67
 05/09/2018 14:30:00,33.21,33.3,1,-1.52
 05/09/2018 14:45:00,33.21,33.3,1,-1.74
 05/09/2018 15:00:00,33.26,33.3,1,-1.14
 05/09/2018 15:15:00,33.33,33.3,1,-2.15
 05/09/2018 15:30:00,33.33,33.3,1,-2.59
 05/09/2018 15:45:00,33.31,33.3,1,-3.1
 05/09/2018 16:00:00,33.28,33.3,1,-3.82
 05/09/2018 16:15:00,33.39,33.3,1,-3.16
 05/09/2018 16:30:00,33.39,33.3,1,-4.72
 05/09/2018 16:45:00,33.37,33.3,1,-5.31
 05/09/2018 17:00:00,33.38,33.3,1,-6.85
 05/09/2018 17:15:00,33.45,33.3,1,-7.82
 05/09/2018 17:30:00,33.46,33.3,1,-8.78
 05/09/2018 17:45:00,33.47,33.3,1,-9.99
 05/09/2018 18:00:00,33.48,33.3,1,-10.6
 05/09/2018 18:15:00,33.54,33.3,1,-11.06
 05/09/2018 18:30:00,33.56,33.3,1,-12.1
 05/09/2018 18:45:00,33.56,33.3,1,-12.86
 05/09/2018 19:00:00,33.57,33.3,1,-13.2
 05/09/2018 19:15:00,33.55,33.3,1,-13.48
 05/09/2018 19:30:00,33.5,33.3,1,-13.49
 05/09/2018 19:45:00,33.48,33.3,1,-13.72
 05/09/2018 20:00:00,33.44,33.3,1,-13.8
 05/09/2018 20:15:00,33.37,33.3,1,-14.16
 05/09/2018 20:30:00,33.39,33.3,1,-14.16
 05/09/2018 20:45:00,33.43,33.3,1,-14.02
 05/09/2018 21:00:00,33.51,33.3,1,-13.63
 05/09/2018 21:15:00,33.49,33.3,1,-13.42
 05/09/2018 21:30:00,33.46,33.3,1,-13.11
 05/09/2018 21:45:00,33.37,33.3,1,-12.63
 05/09/2018 22:00:00,33.34,33.3,1,-12.13
 05/09/2018 22:15:00,33.38,33.3,1,-11.43
 05/09/2018 22:30:00,33.39,33.3,1,-10.89
 05/09/2018 22:45:00,33.45,33.3,1,-10.37
 05/09/2018 23:00:00,33.53,33.3,1,-9.89
 05/09/2018 23:15:00,33.64,33.3,1,-9.44
 05/09/2018 23:30:00,33.74,33.3,1,-8.99
 05/09/2018 23:45:00,33.71,33.3,1,-8.57
 06/09/2018 00:00:00,33.65,33.3,1,-8.28
 06/09/2018 00:15:00,33.69,33.3,1,-8.25
 06/09/2018 00:30:00,33.76,33.3,1,-7.9
 06/09/2018 00:45:00,33.55,33.3,1,-7.9
 06/09/2018 01:00:00,33.43,33.3,1,-7.92
 06/09/2018 01:15:00,33.38,33.3,1,-8.33
 06/09/2018 01:30:00,33.31,33.3,1,-8.29
 06/09/2018 01:45:00,33.3,33.3,1,-8.1
 06/09/2018 02:00:00,33.37,33.3,1,-8.1
 06/09/2018 02:15:00,33.39,33.3,1,-7.98
 06/09/2018 02:30:00,33.4,33.3,1,-7.9
 06/09/2018 02:45:00,33.47,33.3,1,-7.77
 06/09/2018 03:00:00,33.52,33.3,1,-7.7
 06/09/2018 03:15:00,33.49,33.3,1,-7.7
 06/09/2018 03:30:00,33.48,33.3,1,-7.7
 06/09/2018 03:45:00,33.49,33.3,1,-7.7
 06/09/2018 04:00:00,33.53,33.3,1,-7.7
 06/09/2018 04:15:00,33.49,33.3,1,-7.7
 06/09/2018 04:30:00,33.55,33.3,1,-7.7
 06/09/2018 04:45:00,33.55,33.3,1,-7.78
 06/09/2018 05:00:00,33.52,33.3,1,-7.87
 06/09/2018 05:15:00,33.46,33.3,1,-8.14
 06/09/2018 05:30:00,33.42,33.3,1,-8.31
 06/09/2018 05:45:00,33.45,33.3,1,-8.64
 06/09/2018 06:00:00,33.33,33.3,1,-8.96
 06/09/2018 06:15:00,33.13,33.3,1,-9.94
 06/09/2018 06:30:00,33.08,33.3,1,-10.29
 06/09/2018 06:45:00,33.18,33.3,1,-11.11
 06/09/2018 07:00:00,33.19,33.3,1,-11.74
 06/09/2018 07:15:00,33.05,33.3,1,-12.32
 06/09/2018 07:30:00,32.91,33.3,1,-12.57
 06/09/2018 07:45:00,33.03,33.3,1,-11.92
 06/09/2018 08:00:00,33.15,33.3,1,-10.86
 06/09/2018 08:15:00,33.1,33.3,1,-10.59
 06/09/2018 08:30:00,33.06,33.3,1,-10.62
 06/09/2018 08:45:00,33.03,33.3,1,-9.5
 06/09/2018 09:00:00,33.41,33.3,1,-5.76
 06/09/2018 09:15:00,33.49,33.3,1,0.0
 06/09/2018 09:30:00,33.48,33.3,1,0.0
 06/09/2018 09:45:00,33.51,33.3,1,0.0
 06/09/2018 10:00:00,33.53,33.3,1,0.0
 06/09/2018 10:15:00,33.53,33.3,1,0.0
 06/09/2018 10:30:00,33.49,33.3,1,0.0
 06/09/2018 10:45:00,33.45,33.3,1,0.0
 06/09/2018 11:00:00,33.46,33.3,1,0.0
 06/09/2018 11:15:00,33.44,33.3,1,0.0
 06/09/2018 11:30:00,33.42,33.3,1,0.0
 06/09/2018 11:45:00,33.41,33.3,1,0.0
 06/09/2018 12:00:00,33.44,33.3,1,0.0
 06/09/2018 12:15:00,33.4,33.3,1,0.0
 06/09/2018 12:30:00,33.4,33.3,1,0.0
 06/09/2018 12:45:00,33.44,33.3,1,0.0
 06/09/2018 13:00:00,33.4,33.3,1,0.0
 06/09/2018 13:15:00,33.49,33.3,1,0.0
 06/09/2018 13:30:00,33.5,33.3,1,0.0
 06/09/2018 13:45:00,33.48,33.3,1,0.0
 06/09/2018 14:00:00,33.52,33.3,1,0.0
 06/09/2018 14:15:00,33.47,33.3,1,0.0
 06/09/2018 14:30:00,33.48,33.3,1,0.0
 06/09/2018 14:45:00,33.53,33.3,1,0.0
 06/09/2018 15:00:00,33.49,33.3,1,0.0
 06/09/2018 15:15:00,33.36,33.3,1,-8.3
 06/09/2018 15:30:00,33.33,33.3,1,-9.13
 06/09/2018 15:45:00,33.32,33.3,1,-10.72
 06/09/2018 16:00:00,33.26,33.3,1,-10.72
 06/09/2018 16:15:00,33.32,33.3,1,-11.31
 06/09/2018 16:30:00,33.36,33.3,1,-12.08
 06/09/2018 16:45:00,33.31,33.3,1,-12.95
 06/09/2018 17:00:00,33.28,33.3,1,-13.75
 06/09/2018 17:15:00,33.31,33.3,1,-14.3
 06/09/2018 17:30:00,33.3,33.3,1,-13.98
 06/09/2018 17:45:00,33.32,33.3,1,-14.11
 06/09/2018 18:00:00,33.32,33.3,1,-14.51
 06/09/2018 18:15:00,33.35,33.3,1,-14.41
 06/09/2018 18:30:00,33.37,33.3,1,-14.75
 06/09/2018 18:45:00,33.39,33.3,1,-14.55
 06/09/2018 19:00:00,33.43,33.3,1,-13.65
 06/09/2018 19:15:00,33.42,33.3,1,-13.78
 06/09/2018 19:30:00,33.44,33.3,1,-14.32
 06/09/2018 19:45:00,33.4,33.3,1,-14.69
 06/09/2018 20:00:00,33.41,33.3,1,-14.72
 06/09/2018 20:15:00,33.46,33.3,1,-14.78
 06/09/2018 20:30:00,33.5,33.3,1,-14.47
 06/09/2018 20:45:00,33.49,33.3,1,-14.16
 06/09/2018 21:00:00,33.54,33.3,1,-13.81
 06/09/2018 21:15:00,33.47,33.3,1,-13.76
 06/09/2018 21:30:00,33.09,33.3,1,-13.31
 06/09/2018 21:45:00,33.1,33.3,1,-12.7
 06/09/2018 22:00:00,33.14,33.3,1,-12.21
 06/09/2018 22:15:00,33.14,33.3,1,-11.65
 06/09/2018 22:30:00,33.09,33.3,1,-11.02
 06/09/2018 22:45:00,33.2,33.3,1,-10.58
 06/09/2018 23:00:00,33.25,33.3,1,-9.95
 06/09/2018 23:15:00,33.34,33.3,1,-9.43
 06/09/2018 23:30:00,33.1,33.3,1,-8.91
 06/09/2018 23:45:00,33.13,33.3,1,-8.59
 07/09/2018 00:00:00,33.21,33.3,1,-8.37
 07/09/2018 00:15:00,33.25,33.3,1,-8.35
 07/09/2018 00:30:00,33.29,33.3,1,-8.1
 07/09/2018 00:45:00,33.3,33.3,1,-7.91
 07/09/2018 01:00:00,33.3,33.3,1,-7.77
 07/09/2018 01:15:00,33.33,33.3,1,-8.12
 07/09/2018 01:30:00,33.37,33.3,1,-8.04
 07/09/2018 01:45:00,33.37,33.3,1,-7.86
 07/09/2018 02:00:00,33.42,33.3,1,-7.84
 07/09/2018 02:15:00,33.47,33.3,1,-7.84
 07/09/2018 02:30:00,33.47,33.3,1,-7.61
 07/09/2018 02:45:00,33.53,33.3,1,-7.57
 07/09/2018 03:00:00,33.43,33.3,1,-7.62
 07/09/2018 03:15:00,33.37,33.3,1,-7.64
 07/09/2018 03:30:00,33.39,33.3,1,-7.79
 07/09/2018 03:45:00,33.35,33.3,1,-7.79
 07/09/2018 04:00:00,33.34,33.3,1,-7.7
 07/09/2018 04:15:00,33.33,33.3,1,-7.79
 07/09/2018 04:30:00,33.34,33.3,1,-7.9
 07/09/2018 04:45:00,33.26,33.3,1,-7.9
 07/09/2018 05:00:00,33.28,33.3,1,-7.9
 07/09/2018 05:15:00,33.19,33.3,1,-8.15
 07/09/2018 05:30:00,33.24,33.3,1,-8.37
 07/09/2018 05:45:00,33.22,33.3,1,-8.6
 07/09/2018 06:00:00,33.2,33.3,1,-9.07
 07/09/2018 06:15:00,33.1,33.3,1,-10.01
 07/09/2018 06:30:00,33.07,33.3,1,-10.49
 07/09/2018 06:45:00,33.26,33.3,1,-11.23
 07/09/2018 07:00:00,33.5,33.3,1,-11.9
 07/09/2018 07:15:00,33.41,33.3,1,-12.52
 07/09/2018 07:30:00,33.23,33.3,1,-12.65
 07/09/2018 07:45:00,33.28,33.3,1,-12.6
 07/09/2018 08:00:00,33.21,33.3,1,-12.85
 07/09/2018 08:15:00,33.22,33.3,1,-12.57
 07/09/2018 08:30:00,33.16,33.3,1,-11.33
 07/09/2018 08:45:00,33.18,33.3,1,-9.69
 07/09/2018 09:00:00,33.23,33.3,1,-8.18
 07/09/2018 09:15:00,33.18,33.3,1,-8.6
 07/09/2018 09:30:00,33.19,33.3,1,-8.34
 07/09/2018 09:45:00,33.2,33.3,1,-7.52
 07/09/2018 10:00:00,33.21,33.3,1,-7.6
 07/09/2018 10:15:00,33.22,33.3,1,-5.94
 07/09/2018 10:30:00,33.22,33.3,1,-7.12
 07/09/2018 10:45:00,33.16,33.3,1,-6.16
 07/09/2018 11:00:00,33.12,33.3,1,-6.86
 07/09/2018 11:15:00,33.09,33.3,1,-7.38
 07/09/2018 11:30:00,33.08,33.3,1,-4.8
 07/09/2018 11:45:00,33.07,33.3,1,-5.81
 07/09/2018 12:00:00,33.16,33.3,1,-4.56
 07/09/2018 12:15:00,33.23,33.3,1,-4.41
 07/09/2018 12:30:00,33.33,33.3,1,-4.58
 07/09/2018 12:45:00,33.37,33.3,1,-3.8
 07/09/2018 13:00:00,33.34,33.3,1,-1.84
 07/09/2018 13:15:00,33.4,33.3,1,-4.27
 07/09/2018 13:30:00,33.37,33.3,1,-1.94
 07/09/2018 13:45:00,33.37,33.3,1,-3.24
 07/09/2018 14:00:00,33.37,33.3,1,-1.59
 07/09/2018 14:15:00,33.39,33.3,1,-3.35
 07/09/2018 14:30:00,33.38,33.3,1,-0.36
 07/09/2018 14:45:00,33.45,33.3,1,0.43
 07/09/2018 15:00:00,33.47,33.3,1,0.52
 07/09/2018 15:15:00,33.55,33.3,1,0.42
 07/09/2018 15:30:00,33.54,33.3,1,0.3
 07/09/2018 15:45:00,33.55,33.3,1,-0.48
 07/09/2018 16:00:00,33.43,33.3,1,-1.07
 07/09/2018 16:15:00,33.06,33.3,1,-2.04
 07/09/2018 16:30:00,33.05,33.3,1,-2.88
 07/09/2018 16:45:00,33.05,33.3,1,-4.42
 07/09/2018 17:00:00,33.03,33.3,1,-7.6
 07/09/2018 17:15:00,33.07,33.3,1,-8.8
 07/09/2018 17:30:00,33.0,33.3,1,-10.66
 07/09/2018 17:45:00,33.0,33.3,1,-12.82
 07/09/2018 18:00:00,33.04,33.3,1,-10.89
 07/09/2018 18:15:00,33.05,33.3,1,-11.03
 07/09/2018 18:30:00,33.01,33.3,1,-11.62
 07/09/2018 18:45:00,33.07,33.3,1,-12.91
 07/09/2018 19:00:00,33.07,33.3,1,-13.39
 07/09/2018 19:15:00,33.06,33.3,1,-13.95
 07/09/2018 19:30:00,33.06,33.3,1,-14.3
 07/09/2018 19:45:00,33.04,33.3,1,-14.45
 07/09/2018 20:00:00,33.03,33.3,1,-14.62
 07/09/2018 20:15:00,33.13,33.3,1,-14.87
 07/09/2018 20:30:00,33.22,33.3,1,-14.58
 07/09/2018 20:45:00,33.25,33.3,1,-14.28
 07/09/2018 21:00:00,33.31,33.3,1,-13.86
 07/09/2018 21:15:00,33.28,33.3,1,-13.5
 07/09/2018 21:30:00,33.3,33.3,1,-13.19
 07/09/2018 21:45:00,33.3,33.3,1,-12.7
 07/09/2018 22:00:00,33.29,33.3,1,-12.16
 07/09/2018 22:15:00,33.29,33.3,1,-11.87
 07/09/2018 22:30:00,33.29,33.3,1,-11.24
 07/09/2018 22:45:00,33.35,33.3,1,-10.76
 07/09/2018 23:00:00,33.19,33.3,1,-10.18
 07/09/2018 23:15:00,33.28,33.3,1,-9.94
 07/09/2018 23:30:00,33.31,33.3,1,-9.65
 07/09/2018 23:45:00,33.39,33.3,1,-9.3
 08/09/2018 00:00:00,33.5,33.3,1,-8.9
 08/09/2018 00:15:00,33.55,33.3,1,-8.71
 08/09/2018 00:30:00,33.57,33.3,1,-8.56
 08/09/2018 00:45:00,33.57,33.3,1,-8.29
 08/09/2018 01:00:00,33.55,33.3,1,-8.24
 08/09/2018 01:15:00,33.51,33.3,1,-8.46
 08/09/2018 01:30:00,33.56,33.3,1,-8.49
 08/09/2018 01:45:00,33.55,33.3,1,-8.28
 08/09/2018 02:00:00,33.62,33.3,1,-8.08
 08/09/2018 02:15:00,33.66,33.3,1,-7.97
 08/09/2018 02:30:00,33.66,33.3,1,-7.97
 08/09/2018 02:45:00,33.36,33.3,1,-7.97
 08/09/2018 03:00:00,33.25,33.3,1,-7.91
 08/09/2018 03:15:00,32.89,33.3,1,-7.78
 08/09/2018 03:30:00,32.97,33.3,1,-7.97
 08/09/2018 03:45:00,33.05,33.3,1,-7.97
 08/09/2018 04:00:00,33.05,33.3,1,-7.77
 08/09/2018 04:15:00,33.03,33.3,1,-7.7
 08/09/2018 04:30:00,33.07,33.3,1,-7.95
 08/09/2018 04:45:00,33.03,33.3,1,-7.97
 08/09/2018 05:00:00,33.03,33.3,1,-7.97
 08/09/2018 05:15:00,33.01,33.3,1,-7.97
 08/09/2018 05:30:00,33.07,33.3,1,-8.07
 08/09/2018 05:45:00,32.92,33.3,1,-8.17
 08/09/2018 06:00:00,32.85,33.3,1,-8.44
 08/09/2018 06:15:00,33.1,33.3,1,-8.69
 08/09/2018 06:30:00,33.1,33.3,1,-8.8
 08/09/2018 06:45:00,33.04,33.3,1,-9.02
 08/09/2018 07:00:00,33.02,33.3,1,-9.37
 08/09/2018 07:15:00,32.91,33.3,1,-9.69
 08/09/2018 07:30:00,32.84,33.3,1,-9.95
 08/09/2018 07:45:00,33.15,33.3,1,-10.18
 08/09/2018 08:00:00,33.56,33.3,1,-10.03
 08/09/2018 08:15:00,33.51,33.3,1,-8.87
 08/09/2018 08:30:00,33.39,33.3,1,-8.42
 08/09/2018 08:45:00,33.3,33.3,1,-7.24
 08/09/2018 09:00:00,33.22,33.3,1,-9.42
 08/09/2018 09:15:00,33.19,33.3,1,-10.18
 08/09/2018 09:30:00,33.18,33.3,1,-10.63
 08/09/2018 09:45:00,33.19,33.3,1,-10.42
 08/09/2018 10:00:00,33.27,33.3,1,-9.69
 08/09/2018 10:15:00,33.34,33.3,1,-8.24
 08/09/2018 10:30:00,33.24,33.3,1,-8.89
 08/09/2018 10:45:00,33.26,33.3,1,-7.77
 08/09/2018 11:00:00,33.28,33.3,1,-7.34
 08/09/2018 11:15:00,33.31,33.3,1,-8.76
 08/09/2018 11:30:00,33.25,33.3,1,-9.31
 08/09/2018 11:45:00,33.26,33.3,1,-8.51
 08/09/2018 12:00:00,33.33,33.3,1,-6.94
 08/09/2018 12:15:00,33.39,33.3,1,-8.99
 08/09/2018 12:30:00,33.38,33.3,1,-10.11
 08/09/2018 12:45:00,33.41,33.3,1,-10.28
 08/09/2018 13:00:00,33.46,33.3,1,-9.4
 08/09/2018 13:15:00,33.45,33.3,1,-7.43
 08/09/2018 13:30:00,33.49,33.3,1,-5.2
 08/09/2018 13:45:00,33.48,33.3,1,-7.32
 08/09/2018 14:00:00,33.51,33.3,1,-7.5
 08/09/2018 14:15:00,33.55,33.3,1,-6.29
 08/09/2018 14:30:00,33.53,33.3,1,-5.33
 08/09/2018 14:45:00,33.21,33.3,1,-7.06
 08/09/2018 15:00:00,33.18,33.3,1,-7.75
 08/09/2018 15:15:00,33.2,33.3,1,-8.68
 08/09/2018 15:30:00,33.27,33.3,1,-9.59
 08/09/2018 15:45:00,33.21,33.3,1,-9.41
 08/09/2018 16:00:00,33.19,33.3,1,-9.67
 08/09/2018 16:15:00,33.14,33.3,1,-10.27
 08/09/2018 16:30:00,33.11,33.3,1,-10.62
 08/09/2018 16:45:00,33.02,33.3,1,-10.96
 08/09/2018 17:00:00,32.98,33.3,1,-12.01
 08/09/2018 17:15:00,32.92,33.3,1,-12.66
 08/09/2018 17:30:00,32.89,33.3,1,-12.54
 08/09/2018 17:45:00,32.81,33.3,1,-13.19
 08/09/2018 18:00:00,32.83,33.3,1,-13.5
 08/09/2018 18:15:00,32.82,33.3,1,-14.1
 08/09/2018 18:30:00,32.83,33.3,1,-13.94
 08/09/2018 18:45:00,32.87,33.3,1,-14.24
 08/09/2018 19:00:00,32.91,33.3,1,-14.37
 08/09/2018 19:15:00,32.89,33.3,1,-14.21
 08/09/2018 19:30:00,32.89,33.3,1,-14.2
 08/09/2018 19:45:00,32.93,33.3,1,-14.17
 08/09/2018 20:00:00,32.87,33.3,1,-14.0
 08/09/2018 20:15:00,33.03,33.3,1,-13.63
 08/09/2018 20:30:00,33.15,33.3,1,-13.26
 08/09/2018 20:45:00,33.19,33.3,1,-12.85
 08/09/2018 21:00:00,33.25,33.3,1,-12.63
 08/09/2018 21:15:00,33.29,33.3,1,-12.42
 08/09/2018 21:30:00,33.41,33.3,1,-11.95
 08/09/2018 21:45:00,33.5,33.3,1,-11.62
 08/09/2018 22:00:00,33.39,33.3,1,-11.27
 08/09/2018 22:15:00,33.32,33.3,1,-10.89
 08/09/2018 22:30:00,33.34,33.3,1,-10.45
 08/09/2018 22:45:00,33.41,33.3,1,-10.15
 08/09/2018 23:00:00,33.57,33.3,1,-9.75
 08/09/2018 23:15:00,33.56,33.3,1,-9.46
 08/09/2018 23:30:00,33.59,33.3,1,-9.02
 08/09/2018 23:45:00,33.59,33.3,1,-8.75
 09/09/2018 00:00:00,33.4,33.3,1,-8.71
 09/09/2018 00:15:00,33.46,33.3,1,-8.68
 09/09/2018 00:30:00,33.47,33.3,1,-8.44
 09/09/2018 00:45:00,33.53,33.3,1,-8.23
 09/09/2018 01:00:00,33.62,33.3,1,-8.17
 09/09/2018 01:15:00,33.48,33.3,1,-8.44